SCP
2 1 2 2 2 2 2 2 1 1 1 1 1 1 1 1 1 1 0 1 1 1 1 1 1 1 1 1 1 1 1 1 0 0 0 0 0 0 0 0 0 0 0
1 1 1 2 2 2 2 2 1 1 1 1 1 1 1 1 1 1 0 0 1 1 1 1 1 1 1 1 1 1 1 1 0 0 0 0 0 0 0 0 0 0 0
1 1 1 1 1 2 2 2 1 1 1 1 1 1 1 1 0 0 0 0 1 1 1 1 1 2 2 1 1 1 1 1 0 0 0 0 0 0 0 0 0 0 0
1 1 1 1 1 1 1 1 1 1 1 1 1 1 1 1 0 0 0 0 1 1 1 1 1 2 2 1 1 1 1 1 0 0 0 0 0 0 0 0 0 0 0
0 1 1 1 1 1 1 1 1 1 1 1 1 1 1 0 0 0 0 0 1 1 1 1 1 1 1 1 1 1 1 1 1 0 0 0 0 0 0 0 0 0 0
0 0 1 1 1 1 1 1 1 1 1 1 1 1 1 0 0 0 0 0 0 1 1 1 1 1 1 1 1 1 1 1 1 1 0 0 0 0 0 0 0 0 0
0 0 0 1 1 1 1 1 1 1 1 1 1 0 0 0 0 0 0 0 0 1 1 1 1 1 1 1 1 1 1 1 1 1 1 0 0 0 0 0 0 0 0
0 0 0 0 0 0 0 1 1 1 1 0 0 0 0 0 0 0 0 0 0 1 1 1 1 1 1 1 1 1 1 1 1 1 1 0 0 0 0 0 0 0 0
0 0 0 0 0 0 0 0 1 0 0 0 0 0 0 0 0 0 0 0 1 1 1 1 1 1 1 1 1 1 1 1 1 1 1 0 1 0 0 0 0 0 0
0 0 0 0 0 0 0 0 0 0 0 0 0 0 0 0 0 0 0 0 0 1 1 1 1 1 1 1 1 1 0 0 1 1 1 1 1 1 0 0 0 0 0
0 0 0 0 0 0 0 0 0 0 0 0 0 0 0 0 0 0 0 0 0 1 1 1 1 1 1 1 0 0 0 0 0 1 0 1 1 1 1 0 0 0 0
0 0 0 0 0 0 0 0 0 0 0 0 0 0 0 0 0 0 0 0 0 1 1 1 1 1 1 0 0 0 0 0 0 0 0 1 1 1 1 1 0 0 0
0 0 0 0 0 0 0 0 0 0 0 0 0 0 0 0 0 0 0 0 0 1 1 1 1 1 0 0 0 0 0 0 0 0 0 1 1 1 1 0 0 0 0
0 0 0 0 0 0 0 0 0 0 0 0 0 0 0 0 0 0 0 0 0 0 0 0 0 0 0 0 0 0 0 0 0 0 0 0 0 0 0 0 0 0 0
0 0 0 0 0 0 0 0 0 0 0 0 0 0 0 0 0 0 0 0 0 0 0 0 0 0 0 0 0 0 0 0 0 0 0 0 0 0 0 0 0 0 0
0 0 0 0 0 0 0 0 0 0 0 0 0 0 0 0 0 0 0 0 0 0 0 0 0 0 0 0 0 0 0 0 0 0 0 0 0 0 0 0 0 0 0
0 0 0 0 0 0 0 0 0 0 0 0 0 0 0 0 0 0 0 0 0 0 0 0 0 0 0 0 0 0 0 0 0 0 0 0 0 0 0 0 0 0 0
0 0 0 0 0 0 0 0 0 0 0 0 0 0 0 0 0 0 0 0 0 0 0 0 0 0 0 0 0 0 0 0 0 0 0 0 0 0 0 0 0 0 0
0 0 0 0 0 0 0 0 0 0 0 0 0 0 0 0 0 0 0 0 0 0 0 0 0 0 0 0 0 0 0 0 0 0 0 0 0 0 0 0 0 0 0
0 0 0 0 0 0 0 0 0 0 0 0 0 0 0 0 0 0 0 0 0 0 0 0 0 0 0 0 0 0 0 0 0 0 0 0 0 0 0 0 0 0 0
0 0 0 0 0 0 0 0 0 0 0 0 0 0 0 0 0 0 0 0 0 0 0 0 0 0 0 0 0 0 0 0 0 0 0 0 0 0 0 0 0 0 0
0 0 0 0 0 0 0 0 0 0 0 0 0 0 0 0 0 0 0 0 0 0 0 0 0 0 0 0 0 0 0 0 0 0 0 0 0 0 0 0 0 0 0
0 0 0 0 0 0 0 0 0 0 0 0 0 0 0 0 0 0 0 0 0 0 0 0 0 0 0 0 0 0 0 0 0 0 0 0 0 0 0 0 0 0 0
0 0 0 0 0 0 0 0 0 0 0 0 0 0 0 0 0 0 0 0 0 0 0 0 0 0 0 0 0 0 0 0 0 0 0 0 0 0 0 0 0 0 0
0 0 0 0 0 0 0 0 0 0 0 0 0 0 0 0 0 0 0 0 0 0 0 0 0 0 0 0 0 0 0 0 0 0 0 0 0 0 0 0 0 0 0
0 0 0 0 0 0 0 0 0 0 0 0 0 0 0 0 0 0 0 0 0 0 0 0 0 0 0 0 0 0 0 0 0 0 0 0 0 0 0 0 0 0 0
Wind_Speed
3 3 3 3 3 3 3 4 4 5 5 5 4 4 4 4 3 3 3 5 5 6 8 8 9 10 10 10 10 10 10 10 10 10 10 9 9 8 8 8 8 8 8
3 3 3 3 3 3 3 4 5 5 4 4 4 4 3 3 3 3 3 4 4 4 6 8 9 9 10 11 11 10 10 10 10 9 9 8 8 8 8 8 8 8 8
4 3 3 3 3 3 4 4 5 4 4 4 4 4 3 3 3 3 3 2 3 4 3 6 8 9 10 10 10 10 10 10 9 9 8 8 7 7 7 7 7 7 7
4 3 3 3 3 3 3 4 4 4 4 4 4 3 2 2 3 3 2 2 2 2 4 4 6 8 9 9 9 9 10 9 8 8 8 7 6 6 6 6 5 5 5
4 3 3 3 3 3 3 4 4 4 4 4 3 3 2 2 2 2 3 2 2 2 2 4 4 5 7 8 8 9 9 8 8 8 7 6 6 5 5 4 4 4 3
4 3 3 3 3 3 3 4 5 4 4 4 4 3 2 1 1 1 2 2 2 2 2 3 4 4 5 7 8 8 8 8 8 7 6 6 5 5 4 3 3 2 2
4 4 3 4 4 3 4 5 5 6 4 4 3 2 1 1 1 1 2 2 3 3 2 2 3 3 3 5 5 7 8 8 8 7 6 5 5 4 3 2 2 1 1
4 4 4 4 4 4 4 5 5 4 3 4 3 3 2 2 2 2 2 2 3 3 3 3 3 3 3 3 3 4 6 7 7 7 6 6 5 4 3 2 1 1 0
4 4 5 5 5 5 5 5 6 6 5 3 3 3 3 4 2 3 3 3 3 3 3 3 3 3 4 3 3 4 4 5 6 7 6 5 5 4 3 3 2 1 1
4 4 4 4 5 4 5 5 5 4 6 5 3 2 2 1 3 3 3 3 3 3 3 3 3 4 4 3 3 3 4 4 6 6 6 6 5 5 4 4 3 2 2
3 3 4 4 4 4 5 5 5 5 5 5 4 3 2 1 2 2 3 4 4 3 3 3 3 3 4 3 3 4 4 5 6 6 6 6 6 6 5 4 4 3 3
3 4 4 5 5 5 5 6 5 6 5 5 5 4 3 3 3 3 3 3 4 3 4 3 3 3 3 3 3 3 4 5 6 7 7 6 6 5 6 6 5 5 5
3 4 5 5 5 5 5 5 5 6 6 6 6 5 4 3 2 3 3 3 3 2 3 3 3 3 3 3 4 5 5 5 6 7 7 6 5 4 6 7 6 6 6
4 4 5 6 6 6 5 5 5 5 5 6 6 6 4 4 3 3 3 3 3 3 4 4 3 4 4 4 4 6 4 6 5 6 7 6 5 5 5 6 7 7 7
3 4 5 5 5 5 6 6 5 6 5 6 6 6 5 4 3 3 3 4 4 4 5 5 4 5 4 4 5 4 4 5 6 6 6 6 6 6 7 7 7 7 7
3 4 5 5 5 5 6 6 5 6 6 6 5 6 6 4 4 3 4 4 4 4 3 3 3 4 4 3 4 4 5 5 7 7 6 6 6 7 7 7 7 7 7
3 4 4 5 5 5 6 6 6 7 7 7 6 6 6 5 4 4 3 4 4 3 4 2 2 3 5 5 4 4 4 4 4 7 7 7 7 7 7 7 7 7 7
3 4 4 4 4 5 5 6 6 7 7 7 7 6 6 5 6 5 4 5 4 4 4 4 3 4 5 5 4 5 4 4 4 5 7 8 8 8 8 8 8 8 8
3 3 3 4 4 4 5 5 6 6 6 7 6 7 7 7 7 5 5 5 4 3 3 4 3 2 3 3 4 4 5 4 4 4 7 9 9 9 9 9 9 9 9
2 2 3 3 3 3 4 4 5 5 5 5 5 6 6 7 7 7 5 6 5 5 4 4 4 3 3 3 4 4 4 4 4 4 5 6 8 9 10 10 10 10 9
2 2 2 2 2 2 3 3 4 4 5 4 4 5 5 5 6 6 5 6 6 5 5 4 4 4 4 4 5 4 4 4 4 4 4 5 5 5 7 9 10 10 10
1 2 2 2 2 2 2 3 3 4 4 5 5 4 4 5 6 8 8 8 8 7 7 6 6 6 7 6 5 4 4 4 4 4 4 5 5 6 5 5 8 10 10
1 1 2 2 2 2 3 4 4 4 4 4 4 4 4 4 6 6 7 8 8 9 9 8 7 8 7 6 6 6 6 5 5 2 3 5 5 6 5 5 9 10 11
1 1 2 2 2 2 3 4 4 4 4 4 4 5 5 5 6 6 5 6 6 7 7 7 7 7 6 5 6 6 6 5 4 3 4 5 4 5 4 5 8 10 11
1 1 2 2 2 2 3 4 4 3 3 4 4 4 5 6 6 7 6 6 6 5 5 6 5 5 5 6 6 4 4 4 4 4 4 4 3 4 4 5 5 8 10
2 1 2 2 2 2 3 4 5 3 3 3 3 4 5 6 6 8 7 6 7 5 4 4 5 5 6 7 8 7 5 5 4 3 4 4 3 2 3 3 4 4 6
Wind_Direction
173 176 174 167 162 158 161 162 159 151 152 149 147 147 142 140 137 128 114 102 122 140 149 148 147 144 140 137 132 127 123 120 116 112 108 104 100 97 94 94 90 83 77
171 173 172 167 160 160 162 166 159 156 153 150 146 144 142 142 139 135 130 118 105 127 151 157 154 150 145 141 139 134 130 127 121 117 112 109 104 99 96 93 88 83 76
175 174 172 169 158 156 155 154 152 150 148 148 146 142 139 146 147 143 142 144 139 120 134 161 161 154 149 147 145 140 136 131 127 123 118 113 109 104 100 94 88 84 78
173 173 172 170 161 158 155 155 157 157 156 154 145 140 140 138 149 148 148 153 151 156 131 126 154 157 154 153 151 147 144 138 134 130 126 121 117 114 109 102 94 85 76
178 175 172 159 160 162 161 160 160 160 158 149 135 128 126 130 149 157 158 155 153 164 158 123 125 142 155 158 157 155 151 147 144 141 137 133 129 124 118 111 102 89 74
182 176 168 162 165 165 164 165 155 150 153 147 129 112 97 110 156 170 174 166 164 170 171 165 156 133 135 154 160 162 159 158 153 150 148 146 142 136 131 124 108 92 73
184 181 172 172 177 178 176 171 156 150 150 152 139 125 106 117 169 186 196 185 172 175 173 176 176 162 151 145 159 167 167 167 163 161 160 158 156 156 159 149 131 98 68
191 191 183 183 181 179 181 175 168 162 158 178 171 161 174 191 198 208 205 204 189 175 174 178 177 171 171 174 149 167 177 175 172 172 172 174 172 175 175 172 168 153 28
192 194 193 191 186 181 188 190 188 180 171 184 206 198 192 198 170 188 205 203 198 186 179 177 178 173 180 184 172 163 178 185 188 187 185 187 188 191 196 200 204 222 238
198 197 194 196 193 192 194 197 198 198 181 180 191 248 271 189 182 170 188 199 199 200 193 183 192 188 184 191 175 156 162 187 198 201 200 201 204 207 211 217 221 227 245
203 205 200 196 198 201 199 200 197 202 197 192 188 187 194 207 224 197 190 185 190 201 201 200 203 199 192 193 194 173 173 194 203 212 216 213 217 223 224 226 230 240 253
206 212 209 203 204 207 203 204 201 205 208 206 201 199 198 198 204 208 205 193 200 190 190 196 205 205 194 193 190 161 183 199 210 219 224 223 225 234 233 233 233 242 253
208 213 213 210 208 210 207 207 206 210 212 212 211 210 213 222 217 215 204 199 212 198 197 202 201 200 196 197 188 178 193 205 214 222 228 227 227 243 247 238 238 245 254
218 215 218 218 212 206 203 206 209 211 212 215 220 217 217 216 210 210 206 194 201 209 210 204 189 199 194 195 179 186 197 206 213 221 228 230 231 237 251 248 245 248 254
222 215 216 216 211 205 202 202 210 210 212 216 220 219 219 215 213 214 215 211 209 215 219 203 192 191 193 197 181 197 208 202 215 223 230 233 237 237 240 247 247 249 254
218 211 210 211 208 204 202 203 210 210 213 215 216 216 217 213 211 209 214 222 229 228 226 202 200 182 188 195 192 209 213 208 216 223 224 226 232 232 234 240 243 247 253
217 214 210 209 207 206 206 208 211 207 212 212 211 212 214 211 207 206 208 211 218 217 220 216 204 192 197 201 196 211 218 223 218 215 222 226 231 231 231 234 241 246 253
222 219 213 208 207 209 209 212 212 210 212 211 211 208 210 205 209 205 204 208 210 210 210 212 205 204 207 204 208 214 217 223 230 218 226 231 233 233 233 237 241 247 252
223 221 217 214 213 213 213 216 215 213 215 216 212 211 208 203 207 206 205 206 206 208 212 207 210 211 211 204 211 221 225 226 232 227 229 229 231 236 239 240 242 247 251
223 220 218 215 215 214 215 215 214 212 213 215 214 215 212 209 211 205 204 206 201 200 201 202 205 207 207 201 212 218 222 221 228 231 234 237 235 235 239 241 243 246 247
223 214 210 207 208 210 215 211 212 213 209 207 211 215 217 215 215 209 204 203 199 202 202 204 209 210 210 201 211 211 224 226 232 227 236 237 235 235 235 237 239 239 243
224 209 204 206 212 215 194 200 211 210 209 209 211 213 213 211 211 210 214 214 210 208 206 210 215 217 222 219 213 210 218 228 234 208 231 242 237 242 242 240 241 244 248
223 225 224 220 225 221 195 200 211 212 210 213 214 213 215 215 214 216 215 214 221 226 224 224 226 228 228 221 212 216 223 232 243 226 228 249 241 247 250 247 246 248 252
242 240 236 232 235 231 201 206 211 220 218 217 220 221 220 219 218 215 215 219 225 227 227 230 236 238 235 228 222 223 228 240 256 243 226 249 250 255 259 255 246 249 253
262 259 249 238 236 234 209 212 216 221 221 224 228 229 227 224 213 206 211 217 224 231 231 231 243 245 236 228 224 212 207 216 241 242 221 241 256 266 263 256 251 251 254
265 262 262 260 253 253 225 217 221 220 223 227 228 231 228 228 215 208 215 217 223 227 222 219 223 227 229 223 220 221 214 218 234 242 213 219 243 260 268 256 257 258 256